Regional Weather Roundup
Issued by NWS

Home | Current Version | Previous Version | Graphics & Text | Print | Product List | Glossary On
Versions: 1 2 3 4 5 6 7 8 9 10 11 12 13 14 15 16 17 18 19 20 21 22 23 24 25 26 27 28 29 30 31 32 33 34 35 36 37 38 39 40 41 42 43 44 45 46 47 48 49 50
000
ASUS43 KLSX 070907
RWRMO

WEATHER SUMMARY FOR MISSOURI
NATIONAL WEATHER SERVICE SPRINGFIELD MO
300 AM CST WED DEC 07 2016

NOTE: "FAIR" INDICATES FEW OR NO CLOUDS BELOW 12,000 FEET WITH NO
       SIGNIFICANT WEATHER AND/OR OBSTRUCTIONS TO VISIBILITY.
       CURRENT SKY AND/OR WEATHER CONDITIONS ARE NOT AVAILABLE FOR
       CHILLICOTHE AND FARMINGTON.

MOZ001>031-035>038-043-044-053-054-071000-
...NORTHERN AND WESTERN MISSOURI...

CITY           SKY/WX    TMP DP  RH WIND       PRES   REMARKS
KANSAS CTY INT CLOUDY    30  13  49 N7        30.20R WCI  23
KANSAS C DTWN  CLOUDY    33  12  41 N5        30.22R WCI  29
LEE`S SUMMIT   CLOUDY    33  12  41 N9        30.21R WCI  25
ST JOSEPH      CLOUDY    28  14  55 N7        30.22R WCI  21
CHILLICOTHE      N/A     29  14  53 NW6       30.21R WCI  23
KIRKSVILLE     CLOUDY    28  13  53 NW9       30.15R WCI  19

$$
MOZ066>068-077>081-088>096-101>105-071000-
...SOUTHWEST MISSOURI...

CITY           SKY/WX    TMP DP  RH WIND       PRES   REMARKS
SPRINGFIELD    CLEAR     28  17  63 NE5       30.14R WCI  23
JOPLIN         MOCLDY    29  19  66 NE5       30.17R WCI  24

$$
MOZ032>034-039>042-045>050-055>058-069>072-071000-
...CENTRAL MISSOURI...

CITY           SKY/WX    TMP DP  RH WIND       PRES   REMARKS
COLUMBIA       CLOUDY    30  18  60 NW6       30.17R WCI  24
JEFFERSON CITY PTCLDY    27  20  75 CALM      30.19R
ROLLA          CLEAR     25  17  72 NW7       30.14R WCI  17
SEDALIA        CLOUDY    32  18  56 NW10      30.20R WCI  24
WHITEMAN AFB   PTCLDY    31  16  54 N10       30.19R WCI  22
WARRENSBURG    CLOUDY    30  21  69 NW3       30.21R
OSAGE BEACH    CLOUDY    29  17  61 CALM      30.19R

$$
MOZ051-052-059>065-071000-
...EAST CENTRAL MISSOURI...

CITY           SKY/WX    TMP DP  RH WIND       PRES   REMARKS
ST LOUIS INTL  PTCLDY    30  19  63 NW6       30.14S WCI  24
SPIRIT OF STL  CLOUDY    27  19  72 W6        30.17R WCI  20
ST CHARLES     MOCLDY    32  19  58 NW7       30.15R WCI  26

$$
MOZ072>076-082>087-097>100-106>115-071000-
...SOUTH CENTRAL AND SOUTHEAST MISSOURI...

CITY           SKY/WX    TMP DP  RH WIND       PRES   REMARKS
CAPE GIRARDEAU PTCLDY    35  27  72 CALM      30.16S
FARMINGTON     CLOUDY    30  21  69 NW3       30.16R
POPLAR BLUFF   PTCLDY    33  28  81 N6        30.16R WCI  28
WEST PLAINS    CLEAR     29  19  66 NE5       30.14R WCI  24

$$


USA.gov is the U.S. government's official web portal to all federal, state and local government web resources and services.